W0DXV Weather Reports


time (UTC)temp
C
wind
direction
speed
KPH
gust
KPH
rain 1hr
cm
rain 24hr
cm
rain mn
cm
humidity
%
barometer
mb
20260510190433 28 188 4.8 4.8 0.00 0.00 0.00 27 1011.2
20260510185929 28 234 3.2 3.2 0.00 0.00 0.00 28 1011.4
20260510185427 27 44 1.6 1.6 0.00 0.00 0.00 33 1011.5
20260510184924 28 203 1.6 1.6 0.00 0.00 0.00 28 1011.4
20260510184421 28 264 0.0 1.6 0.00 0.00 0.00 28 1011.6
20260510183920 28 160 0.0 0.0 0.00 0.00 0.00 30 1011.7
20260510183417 28 304 0.0 1.6 0.00 0.00 0.00 29 1011.7
20260510182912 28 238 3.2 3.2 0.00 0.00 0.00 31 1011.5
20260510182409 28 269 1.6 1.6 0.00 0.00 0.00 33 1011.6
20260510181904 28 237 3.2 3.2 0.00 0.00 0.00 31 1011.8
20260510181402 28 251 3.2 3.2 0.00 0.00 0.00 31 1011.7
20260510180858 27 313 1.6 1.6 0.00 0.00 0.00 30 1011.7
20260510180355 27 131 1.6 1.6 0.00 0.00 0.00 30 1011.8
20260510175853 27 195 4.8 4.8 0.00 0.00 0.00 28 1012.1
20260510175349 27 37 1.6 1.6 0.00 0.00 0.00 28 1011.8
20260510174845 27 105 3.2 3.2 0.00 0.00 0.00 30 1012.0
20260510174342 26 35 1.6 3.2 0.00 0.00 0.00 28 1012.0
20260510173838 28 67 1.6 1.6 0.00 0.00 0.00 27 1012.1
20260510173334 28 294 3.2 3.2 0.00 0.00 0.00 29 1012.1
20260510172831 27 324 1.6 1.6 0.00 0.00 0.00 36 1012.1
20260510172327 27 128 0.0 1.6 0.00 0.00 0.00 34 1012.1
20260510171823 27 49 3.2 3.2 0.00 0.00 0.00 28 1012.3
20260510171321 27 252 1.6 1.6 0.00 0.00 0.00 35 1012.3
20260510170818 27 56 3.2 3.2 0.00 0.00 0.00 32 1012.2
20260510170314 26 229 1.6 3.2 0.00 0.00 0.00 37 1012.1
20260510165809 26 8 4.8 4.8 0.00 0.00 0.00 32 1012.2
20260510165307 26 139 3.2 3.2 0.00 0.00 0.00 32 1012.4
20260510164804 27 13 6.4 8.0 0.00 0.00 0.00 33 1012.2
20260510164301 26 160 1.6 1.6 0.00 0.00 0.00 34 1012.2
20260510163801 27 269 1.6 1.6 0.00 0.00 0.00 37 1012.4
20260510163257 26 272 0.0 1.6 0.00 0.00 0.00 35 1012.3
20260510162756 26 2 3.2 3.2 0.00 0.00 0.00 34 1012.3
20260510162254 26 151 1.6 1.6 0.00 0.00 0.00 36 1012.5
20260510161749 26 267 1.6 1.6 0.00 0.00 0.00 38 1012.5
20260510161246 26 284 1.6 1.6 0.00 0.00 0.00 41 1012.5
20260510160743 26 280 1.6 3.2 0.00 0.00 0.00 40 1012.7
20260510160239 26 299 1.6 3.2 0.00 0.00 0.00 41 1012.6
20260510155734 26 205 1.6 1.6 0.00 0.00 0.00 41 1012.6
20260510155230 26 283 1.6 1.6 0.00 0.00 0.00 41 1012.5
20260510154727 26 235 1.6 3.2 0.00 0.00 0.00 50 1012.5
20260510154222 26 35 1.6 3.2 0.00 0.00 0.00 45 1012.6
20260510153718 26 240 1.6 1.6 0.00 0.00 0.00 44 1012.5
20260510153214 25 282 1.6 3.2 0.00 0.00 0.00 46 1012.8
20260510152711 24 122 3.2 3.2 0.00 0.00 0.00 48 1012.6
20260510152206 24 22 3.2 3.2 0.00 0.00 0.00 48 1012.8
20260510151704 25 27 1.6 3.2 0.00 0.00 0.00 45 1012.8
20260510151202 25 273 1.6 1.6 0.00 0.00 0.00 47 1012.7
20260510150657 25 68 0.0 1.6 0.00 0.00 0.00 47 1012.7
20260510150153 25 42 4.8 4.8 0.00 0.00 0.00 47 1012.8
20260510145649 25 125 1.6 3.2 0.00 0.00 0.00 50 1012.7
20260510145146 25 218 1.6 1.6 0.00 0.00 0.00 55 1012.7
20260510144642 23 263 1.6 1.6 0.00 0.00 0.00 53 1012.5
20260510144139 23 8 3.2 3.2 0.00 0.00 0.00 55 1012.7
20260510143634 23 240 1.6 1.6 0.00 0.00 0.00 60 1013.0
20260510143131 22 49 1.6 1.6 0.00 0.00 0.00 54 1012.9
20260510142627 22 45 4.8 4.8 0.00 0.00 0.00 56 1012.6
20260510142124 23 32 0.0 0.0 0.00 0.00 0.00 54 1012.7
20260510141621 22 260 1.6 1.6 0.00 0.00 0.00 67 1012.8
20260510141120 22 230 1.6 1.6 0.00 0.00 0.00 64 1012.9
20260510140615 21 55 4.8 4.8 0.00 0.00 0.00 59 1012.6
20260510140114 22 244 0.0 1.6 0.00 0.00 0.00 66 1012.6
20260510135610 22 304 0.0 1.6 0.00 0.00 0.00 66 1012.7
20260510135106 22 57 0.0 1.6 0.00 0.00 0.00 65 1013.0
20260510134603 21 209 1.6 1.6 0.00 0.00 0.00 70 1013.0
20260510134100 21 209 0.0 1.6 0.00 0.00 0.00 73 1012.6
20260510133556 20 42 0.0 1.6 0.00 0.00 0.00 74 1012.8
20260510133052 20 275 0.0 1.6 0.00 0.00 0.00 78 1012.7
20260510132549 20 274 0.0 0.0 0.00 0.00 0.00 76 1012.8
20260510132046 20 274 0.0 0.0 0.00 0.00 0.00 80 1012.7
20260510131544 19 274 0.0 1.6 0.00 0.00 0.00 81 1012.6
20260510131041 18 274 0.0 0.0 0.00 0.00 0.00 84 1012.7
20260510130537 18 274 0.0 1.6 0.00 0.00 0.00 87 1012.7
20260510130035 17 274 0.0 1.6 0.00 0.00 0.00 88 1012.7
20260510125531 17 275 1.6 1.6 0.00 0.00 0.00 89 1012.4
20260510125027 17 275 0.0 1.6 0.00 0.00 0.00 87 1012.5
20260510124524 17 275 1.6 1.6 0.00 0.00 0.00 87 1012.7
20260510124021 16 275 0.0 1.6 0.00 0.00 0.00 89 1012.5
20260510123516 16 275 0.0 1.6 0.00 0.00 0.00 93 1012.6
20260510123012 15 275 1.6 1.6 0.00 0.00 0.00 96 1012.5
20260510122508 15 276 1.6 1.6 0.00 0.00 0.00 99 1012.4
20260510122004 14 287 0.0 1.6 0.00 0.00 0.00 99 1012.0
20260510121501 13 287 0.0 0.0 0.00 0.00 0.00 99 1012.0
20260510120959 13 287 0.0 0.0 0.00 0.00 0.00 99 1012.0
20260510120456 13 287 0.0 0.0 0.00 0.00 0.00 99 1011.9
20260510115951 13 287 0.0 0.0 0.00 0.00 0.00 99 1011.8
20260510115449 13 288 0.0 0.0 0.00 0.00 0.00 99 1011.6
20260510114945 13 288 0.0 0.0 0.00 0.00 0.00 99 1011.8
20260510114442 12 288 0.0 0.0 0.00 0.00 0.00 99 1011.6
20260510113937 12 288 0.0 0.0 0.00 0.00 0.00 99 1011.7
20260510113433 12 288 0.0 0.0 0.00 0.00 0.00 99 1011.5
20260510112931 12 288 0.0 0.0 0.00 0.00 0.00 99 1011.3
20260510112428 11 289 0.0 0.0 0.00 0.00 0.00 99 1011.1
20260510111924 11 288 0.0 0.0 0.00 0.00 0.00 99 1011.3
20260510111420 11 285 0.0 0.0 0.00 0.00 0.00 99 1011.2
20260510110916 11 281 0.0 0.0 0.00 0.00 0.00 99 1011.1
20260510110412 11 281 0.0 0.0 0.00 0.00 0.00 99 1011.0
20260510105908 11 281 0.0 0.0 0.00 0.00 0.00 99 1010.8
20260510105403 11 281 0.0 0.0 0.00 0.00 0.00 99 1010.9
20260510104859 11 281 0.0 0.0 0.00 0.00 0.00 99 1010.8
20260510104356 11 281 0.0 0.0 0.00 0.00 0.00 99 1010.6
20260510103852 11 281 0.0 0.0 0.00 0.00 0.00 99 1010.6
20260510103349 11 281 0.0 0.0 0.00 0.00 0.00 99 1010.4
20260510102844 11 281 0.0 0.0 0.00 0.00 0.00 99 1010.6
20260510102335 11 281 0.0 0.0 0.00 0.00 0.00 99 1010.4
20260510101832 11 281 0.0 0.0 0.00 0.00 0.00 99 1010.5
20260510101331 11 281 0.0 0.0 0.00 0.00 0.00 99 1010.3
20260510100827 11 281 0.0 0.0 0.00 0.00 0.00 99 1010.1
20260510100324 11 281 0.0 0.0 0.00 0.00 0.00 99 1010.2
20260510095820 11 281 0.0 0.0 0.00 0.00 0.00 99 1010.3
20260510095315 11 281 0.0 0.0 0.00 0.00 0.00 99 1010.1
20260510094809 11 281 0.0 0.0 0.00 0.00 0.00 99 1009.7
20260510094304 11 281 0.0 0.0 0.00 0.00 0.00 99 1009.7
20260510093801 11 281 0.0 0.0 0.00 0.00 0.00 99 1009.9
20260510093257 11 281 0.0 0.0 0.00 0.00 0.00 99 1009.7
20260510092753 11 281 0.0 0.0 0.00 0.00 0.00 99 1009.9
20260510092249 12 281 0.0 0.0 0.00 0.00 0.00 99 1009.8
20260510091745 12 281 0.0 0.0 0.00 0.00 0.00 99 1009.8
20260510091243 12 281 0.0 0.0 0.00 0.00 0.00 99 1009.6
20260510090739 12 281 0.0 0.0 0.00 0.00 0.00 99 1009.7
20260510090236 12 281 0.0 0.0 0.00 0.00 0.00 99 1009.5
20260510085731 12 281 0.0 0.0 0.00 0.00 0.00 99 1009.6
20260510085226 12 281 0.0 0.0 0.00 0.00 0.00 99 1009.5
20260510084722 12 281 0.0 0.0 0.00 0.00 0.00 99 1009.3
20260510084219 12 281 0.0 0.0 0.00 0.00 0.00 99 1009.4
20260510083716 12 281 0.0 0.0 0.00 0.00 0.00 99 1009.4
20260510083213 12 281 0.0 0.0 0.00 0.00 0.00 99 1009.2
20260510082709 12 281 0.0 0.0 0.00 0.00 0.00 99 1009.3
20260510082205 12 281 0.0 0.0 0.00 0.00 0.00 99 1009.1
20260510081704 12 281 0.0 0.0 0.00 0.00 0.00 99 1008.9
20260510081201 12 281 0.0 0.0 0.00 0.00 0.00 99 1009.2
20260510080655 12 281 0.0 0.0 0.00 0.00 0.00 99 1009.1
20260510080152 12 281 0.0 0.0 0.00 0.00 0.00 99 1008.9
20260510075649 12 281 0.0 1.6 0.00 0.00 0.00 99 1008.9
20260510075147 12 281 0.0 0.0 0.00 0.00 0.00 99 1008.8
20260510074643 12 281 0.0 0.0 0.00 0.00 0.00 99 1008.8
20260510074139 12 281 0.0 0.0 0.00 0.00 0.00 99 1008.8
20260510073636 12 281 0.0 0.0 0.00 0.00 0.00 99 1008.8
20260510073132 12 281 0.0 0.0 0.00 0.00 0.00 99 1008.8
20260510072628 13 281 0.0 0.0 0.00 0.00 0.00 99 1008.7
20260510072125 13 281 0.0 0.0 0.00 0.00 0.00 99 1008.7
20260510071620 13 281 0.0 0.0 0.00 0.00 0.00 99 1008.8
20260510071118 13 281 0.0 0.0 0.00 0.00 0.00 99 1008.8
20260510070615 13 281 0.0 0.0 0.00 0.00 0.00 99 1008.7
20260510070113 13 281 0.0 0.0 0.00 0.00 0.00 99 1008.6
20260510065608 13 281 0.0 0.0 0.00 0.00 0.00 99 1008.7
20260510065104 13 281 0.0 0.0 0.00 0.00 0.00 99 1008.7
20260510064555 13 282 0.0 0.0 0.00 0.00 0.00 99 1008.4
20260510064052 13 277 0.0 0.0 0.00 0.00 0.00 99 1008.4
20260510063549 13 272 0.0 0.0 0.00 0.00 0.00 99 1008.6
20260510063046 13 272 0.0 0.0 0.00 0.00 0.00 99 1008.7
20260510062542 13 272 0.0 0.0 0.00 0.00 0.00 99 1008.7
20260510062037 13 272 0.0 0.0 0.00 0.00 0.00 99 1008.5
20260510061534 13 272 0.0 0.0 0.00 0.00 0.00 99 1008.5
20260510061031 13 272 0.0 0.0 0.00 0.00 0.00 99 1008.6
20260510060527 13 272 0.0 0.0 0.00 0.00 0.00 99 1008.8
20260510060023 13 273 0.0 0.0 0.00 0.00 0.00 99 1008.6
20260510055520 13 273 0.0 0.0 0.00 0.00 0.00 99 1008.7
20260510055018 13 273 0.0 0.0 0.00 0.00 0.00 99 1008.8
20260510054513 13 273 0.0 0.0 0.00 0.00 0.00 99 1008.7
20260510054009 14 273 0.0 0.0 0.00 0.00 0.00 99 1008.8
20260510053503 14 263 0.0 0.0 0.00 0.00 0.00 99 1008.6
20260510053001 14 263 0.0 0.0 0.00 0.00 0.00 99 1008.7
20260510052456 14 263 0.0 0.0 0.00 0.00 0.00 98 1008.8
20260510051953 14 262 0.0 0.0 0.00 0.00 0.00 98 1008.9
20260510051448 14 260 0.0 0.0 0.00 0.00 0.00 98 1009.0
20260510050945 14 260 0.0 0.0 0.00 0.00 0.00 98 1008.9
20260510050442 14 260 0.0 0.0 0.00 0.00 0.00 98 1009.0
20260510045939 14 5 0.0 0.0 0.00 0.00 0.00 98 1008.8
20260510045436 14 5 0.0 1.6 0.00 0.00 0.00 98 1008.8
20260510044933 15 3 0.0 0.0 0.00 0.00 0.00 98 1009.1
20260510044430 14 2 0.0 0.0 0.00 0.00 0.00 98 1008.9
20260510043927 15 2 0.0 0.0 0.00 0.00 0.00 98 1008.9
20260510043423 15 2 0.0 0.0 0.00 0.00 0.00 98 1008.8
20260510042921 15 2 0.0 0.0 0.00 0.00 0.00 98 1008.9
20260510042416 15 2 0.0 0.0 0.00 0.00 0.00 98 1008.9
20260510041912 15 3 0.0 0.0 0.00 0.00 0.00 98 1009.0
20260510041410 15 5 0.0 0.0 0.00 0.00 0.00 98 1009.0
20260510040908 15 7 1.6 1.6 0.00 0.00 0.00 97 1008.8
20260510040404 15 300 0.0 0.0 0.00 0.00 0.00 97 1008.9
20260510035900 15 300 0.0 0.0 0.00 0.00 0.00 97 1009.0
20260510035356 15 300 0.0 0.0 0.00 0.00 0.00 97 1009.3
20260510034851 15 300 0.0 0.0 0.00 0.00 0.00 97 1009.0
20260510034350 15 300 0.0 0.0 0.00 0.00 0.00 97 1008.8
20260510033846 15 300 0.0 0.0 0.00 0.00 0.00 97 1008.8
20260510033342 15 300 0.0 0.0 0.00 0.00 0.00 96 1009.0
20260510032839 15 300 0.0 0.0 0.00 0.00 0.00 96 1009.0
20260510032336 15 300 0.0 0.0 0.00 0.00 0.00 96 1009.1
20260510031831 15 300 0.0 0.0 0.00 0.00 0.00 96 1009.0
20260510031326 15 300 0.0 0.0 0.00 0.00 0.00 96 1009.0
20260510030821 15 300 0.0 0.0 0.00 0.00 0.00 96 1008.9
20260510030318 15 300 0.0 0.0 0.00 0.00 0.00 95 1009.0
20260510025815 15 300 0.0 0.0 0.00 0.00 0.00 95 1009.0
20260510025312 16 300 0.0 0.0 0.00 0.00 0.00 95 1009.0
20260510024809 16 300 0.0 0.0 0.00 0.00 0.00 95 1008.8
20260510024306 16 300 0.0 0.0 0.00 0.00 0.00 95 1009.0
20260510023802 16 300 0.0 0.0 0.00 0.00 0.00 95 1009.0
20260510023259 16 300 0.0 0.0 0.00 0.00 0.00 95 1008.7
20260510022756 16 300 0.0 0.0 0.00 0.00 0.00 95 1008.7
20260510022255 16 300 0.0 0.0 0.00 0.00 0.00 94 1008.6
20260510021754 16 300 0.0 0.0 0.00 0.00 0.00 94 1008.7
20260510021253 16 300 0.0 0.0 0.00 0.00 0.00 94 1008.5
20260510020748 16 300 0.0 0.0 0.00 0.00 0.00 94 1008.5
20260510020243 16 300 0.0 0.0 0.00 0.00 0.00 94 1008.8
20260510015739 16 300 0.0 0.0 0.00 0.00 0.00 93 1008.4
20260510015236 16 300 0.0 0.0 0.00 0.00 0.00 93 1008.4
20260510014731 16 270 0.0 0.0 0.00 0.00 0.00 92 1008.5
20260510014228 16 247 0.0 0.0 0.00 0.00 0.00 92 1008.3
20260510013724 16 247 0.0 0.0 0.00 0.00 0.00 92 1008.1
20260510013220 17 247 0.0 0.0 0.00 0.00 0.00 92 1007.9
20260510012719 17 247 0.0 0.0 0.00 0.00 0.00 91 1008.3
20260510012215 17 247 0.0 0.0 0.00 0.00 0.00 90 1008.0
20260510011709 17 247 0.0 0.0 0.00 0.00 0.00 90 1007.9
20260510011205 17 247 0.0 0.0 0.00 0.00 0.00 90 1008.1
20260510010702 17 247 0.0 0.0 0.00 0.00 0.00 89 1007.7
20260510010159 17 246 0.0 0.0 0.00 0.00 0.00 89 1007.6
20260510005655 17 247 0.0 0.0 0.00 0.00 0.00 89 1007.6
20260510005152 17 247 0.0 0.0 0.00 0.00 0.00 88 1007.4
20260510004650 18 247 0.0 0.0 0.00 0.00 0.00 87 1007.2
20260510004148 18 247 0.0 0.0 0.00 0.00 0.00 86 1007.1
20260510003645 18 247 0.0 0.0 0.00 0.00 0.00 86 1007.2
20260510003140 18 245 1.6 1.6 0.00 0.00 0.00 84 1007.3
20260510002635 18 237 0.0 0.0 0.00 0.00 0.00 83 1006.9
20260510002132 19 237 0.0 0.0 0.00 0.00 0.00 82 1007.1
20260510001629 19 236 0.0 0.0 0.00 0.00 0.00 80 1006.9
20260510001128 20 236 0.0 0.0 0.00 0.00 0.00 79 1007.0
20260510000628 20 236 0.0 0.0 0.00 0.00 0.00 78 1006.9
20260510000126 20 236 0.0 0.0 0.00 0.00 0.00 78 1006.9
20260509235621 20 236 0.0 0.0 0.00 0.00 0.00 77 1006.9
20260509235119 20 237 0.0 0.0 0.00 0.00 0.00 77 1006.6
20260509234614 20 236 0.0 0.0 0.00 0.00 0.00 77 1006.6
20260509234113 20 236 0.0 0.0 0.00 0.00 0.00 77 1006.8
20260509233610 20 236 0.0 0.0 0.00 0.00 0.00 77 1006.8
20260509233107 20 236 0.0 0.0 0.00 0.00 0.00 76 1006.7
20260509232603 20 235 1.6 1.6 0.00 0.00 0.00 75 1006.7
20260509232100 21 237 0.0 1.6 0.00 0.00 0.00 75 1006.6
20260509231556 21 231 1.6 3.2 0.00 0.00 0.00 75 1006.5
20260509231054 21 225 3.2 3.2 0.00 0.00 0.00 74 1006.7
20260509230551 21 234 1.6 3.2 0.00 0.00 0.00 75 1006.5
20260509230048 21 233 0.0 0.0 0.00 0.00 0.00 75 1006.4
20260509225548 21 230 1.6 1.6 0.00 0.00 0.00 74 1006.4
20260509225044 21 221 3.2 3.2 0.00 0.00 0.00 74 1006.3
20260509224540 21 233 0.0 0.0 0.00 0.00 0.00 72 1006.3
20260509224037 21 233 1.6 3.2 0.00 0.00 0.00 72 1006.3
20260509223534 22 232 1.6 1.6 0.00 0.00 0.00 71 1006.1
20260509223032 22 245 0.0 1.6 0.00 0.00 0.00 69 1006.1
20260509222527 22 197 0.0 0.0 0.00 0.00 0.00 70 1006.1
20260509222024 22 205 1.6 1.6 0.00 0.00 0.00 72 1006.2
20260509221519 22 308 1.6 1.6 0.00 0.00 0.00 71 1005.9
20260509221015 22 94 3.2 4.8 0.00 0.00 0.00 67 1006.1
20260509220511 22 238 1.6 1.6 0.00 0.00 0.00 69 1006.0
20260509220008 22 245 1.6 3.2 0.00 0.00 0.00 68 1006.0
20260509215503 22 233 1.6 1.6 0.00 0.00 0.00 69 1006.1
20260509215001 22 232 0.0 0.0 0.00 0.00 0.00 69 1006.0
20260509214458 22 255 0.0 0.0 0.00 0.00 0.00 70 1006.0
20260509213954 22 246 1.6 1.6 0.00 0.00 0.00 67 1006.0
20260509213450 22 229 1.6 3.2 0.00 0.00 0.00 67 1006.2
20260509212948 22 232 3.2 3.2 0.00 0.00 0.00 69 1005.7
20260509212445 22 274 0.0 1.6 0.00 0.00 0.00 69 1006.0
20260509211941 22 232 0.0 1.6 0.00 0.00 0.00 69 1005.9
20260509211437 23 236 0.0 1.6 0.00 0.00 0.00 68 1005.8
20260509210934 22 237 3.2 4.8 0.00 0.00 0.00 68 1006.0
20260509210431 22 237 0.0 0.0 0.00 0.00 0.00 68 1006.0
20260509205926 23 222 1.6 3.2 0.00 0.00 0.00 67 1005.9
20260509205421 23 230 3.2 3.2 0.00 0.00 0.00 67 1005.9
20260509204918 23 239 1.6 1.6 0.00 0.00 0.00 66 1005.8
20260509204414 22 244 0.0 1.6 0.00 0.00 0.00 67 1005.9
20260509203911 22 244 3.2 3.2 0.00 0.00 0.00 65 1006.0
20260509203407 23 234 1.6 3.2 0.00 0.00 0.00 65 1005.6
20260509202904 23 231 3.2 3.2 0.00 0.00 0.00 64 1005.2
20260509202400 23 292 3.2 4.8 0.00 0.00 0.00 67 1005.7
20260509201855 23 265 1.6 1.6 0.00 0.00 0.00 64 1005.9
20260509201351 23 279 1.6 1.6 0.00 0.00 0.00 64 1005.9
20260509200848 23 270 1.6 1.6 0.00 0.00 0.00 65 1005.9
20260509200343 23 228 1.6 1.6 0.00 0.00 0.00 67 1005.8
20260509195840 23 296 4.8 4.8 0.00 0.00 0.00 67 1005.9
20260509195340 23 248 1.6 3.2 0.00 0.00 0.00 65 1006.0
20260509194839 22 212 1.6 3.2 0.00 0.00 0.00 66 1006.0
20260509194336 22 241 0.0 1.6 0.00 0.00 0.00 68 1006.1
20260509193832 22 236 0.0 0.0 0.00 0.00 0.00 68 1006.1
20260509193327 22 261 1.6 3.2 0.00 0.00 0.00 70 1006.2
20260509192823 22 256 1.6 1.6 0.00 0.00 0.00 69 1006.1
20260509192319 21 230 1.6 3.2 0.00 0.00 0.00 72 1006.4
20260509191815 22 253 4.8 4.8 0.00 0.00 0.00 69 1006.3
20260509191311 22 280 1.6 3.2 0.00 0.00 0.00 69 1006.5